KE2BQW Weather Reports


Display with metric or nautical units.
time (UTC)temp
F
wind
direction
speed
MPH
gust
MPH
rain 1hr
in
rain 24hr
in
rain mn
in
humidity
%
barometer
mb
20260504045517 53 0.0 0.0 0.00 0.00 0.00 46 1009.7
20260504044522 53 0.0 0.0 0.00 0.00 0.00 45 1009.7
20260504043516 54 0.0 0.0 0.00 0.00 0.00 44 1009.7
20260504042516 55 0.0 0.0 0.00 0.00 0.00 43 1009.6
20260504041515 55 0.0 0.0 0.00 0.00 0.00 43 1009.6
20260504040537 55 0.0 0.0 0.00 0.00 0.00 43 1009.5
20260504035536 55 0.0 0.0 0.00 0.00 0.00 43 1009.5
20260504034535 55 0.0 0.0 0.00 0.00 0.00 43 1009.5
20260504033557 55 0.0 0.0 0.00 0.00 0.00 43 1009.5
20260504032516 55 0.0 0.0 0.00 0.00 0.00 43 1009.5
20260504031515 55 0.0 0.0 0.00 0.00 0.00 44 1009.6
20260504030516 55 0.0 0.0 0.00 0.00 0.00 44 1009.6
20260504025516 55 0.0 0.0 0.00 0.00 0.00 45 1009.6
20260504024516 55 0.0 0.0 0.00 0.00 0.00 46 1009.7
20260504023515 55 0.0 0.0 0.00 0.00 0.00 46 1009.8
20260504022516 55 0.0 0.0 0.00 0.00 0.00 47 1009.8
20260504021516 55 0.0 0.0 0.00 0.00 0.00 48 1009.9
20260504020516 54 0.0 0.0 0.00 0.00 0.00 50 1009.9
20260504015536 54 0.0 0.0 0.00 0.00 0.00 53 1009.9
20260504014517 53 0.0 0.0 0.00 0.00 0.00 57 1009.9
20260504013556 53 0.0 0.0 0.00 0.00 0.00 59 1009.9
20260504012517 52 0.0 0.0 0.00 0.00 0.00 60 1010.0
20260504011516 52 0.0 0.0 0.00 0.00 0.00 60 1010.2
20260504010515 52 0.0 0.0 0.00 0.00 0.00 61 1010.4
20260504005516 52 0.0 0.0 0.00 0.00 0.00 63 1010.3
20260504004516 51 0.0 0.0 0.00 0.00 0.00 64 1010.2
20260504003537 51 0.0 0.0 0.00 0.00 0.00 63 1010.4
20260504002516 52 0.0 0.0 0.00 0.00 0.00 62 1010.7
20260504001516 52 0.0 0.0 0.00 0.00 0.00 60 1010.7
20260504000537 53 0.0 0.0 0.00 0.00 0.00 58 1010.6
20260503235537 53 0.0 0.0 0.00 0.00 0.00 57 1010.4
20260503234516 53 0.0 0.0 0.00 0.00 0.00 56 1010.3
20260503233517 54 0.0 0.0 0.00 0.00 0.00 52 1010.4
20260503232518 55 0.0 0.0 0.00 0.00 0.00 47 1010.4
20260503231516 55 0.0 0.0 0.00 0.00 0.00 43 1010.1
20260503230517 55 0.0 0.0 0.00 0.00 0.00 42 1009.8
20260503225556 56 0.0 0.0 0.00 0.00 0.00 41 1009.6
20260503224516 56 0.0 0.0 0.00 0.00 0.00 39 1009.6
20260503223537 56 0.0 0.0 0.00 0.00 0.00 38 1009.5
20260503222517 57 0.0 0.0 0.00 0.00 0.00 36 1009.5
20260503221516 57 0.0 0.0 0.00 0.00 0.00 36 1009.3
20260503220515 57 0.0 0.0 0.00 0.00 0.00 36 1009.4
20260503215516 57 0.0 0.0 0.00 0.00 0.00 37 1009.6
20260503214515 57 0.0 0.0 0.00 0.00 0.00 37 1009.6
20260503213517 57 0.0 0.0 0.00 0.00 0.00 36 1009.7
20260503212515 58 0.0 0.0 0.00 0.00 0.00 35 1009.7
20260503211517 58 0.0 0.0 0.00 0.00 0.00 35 1009.4
20260503210516 58 0.0 0.0 0.00 0.00 0.00 34 1009.5
20260503205515 58 0.0 0.0 0.00 0.00 0.00 33 1009.4
20260503204516 59 0.0 0.0 0.00 0.00 0.00 33 1009.4
20260503203516 58 0.0 0.0 0.00 0.00 0.00 33 1009.5
20260503202517 59 0.0 0.0 0.00 0.00 0.00 32 1009.7
20260503201516 58 0.0 0.0 0.00 0.00 0.00 33 1009.8
20260503200517 58 0.0 0.0 0.00 0.00 0.00 32 1010.0
20260503195516 57 0.0 0.0 0.00 0.00 0.00 32 1010.1
20260503194516 58 0.0 0.0 0.00 0.00 0.00 31 1010.4
20260503193517 57 0.0 0.0 0.00 0.00 0.00 31 1010.5
20260503192516 56 0.0 0.0 0.00 0.00 0.00 33 1010.8
20260503191515 56 0.0 0.0 0.00 0.00 0.00 33 1011.0
20260503190517 56 0.0 0.0 0.00 0.00 0.00 33 1011.3
20260503185516 56 0.0 0.0 0.00 0.00 0.00 32 1011.3
20260503184516 56 0.0 0.0 0.00 0.00 0.00 33 1011.5
20260503183516 55 0.0 0.0 0.00 0.00 0.00 32 1011.5
20260503182517 55 0.0 0.0 0.00 0.00 0.00 35 1011.6
20260503181516 55 0.0 0.0 0.00 0.00 0.00 36 1011.9
20260503180515 55 0.0 0.0 0.00 0.00 0.00 37 1011.9
20260503175515 56 0.0 0.0 0.00 0.00 0.00 40 1011.9
20260503174516 56 0.0 0.0 0.00 0.00 0.00 42 1012.0
20260503173517 55 0.0 0.0 0.00 0.00 0.00 41 1012.1
20260503172516 55 0.0 0.0 0.00 0.00 0.00 40 1012.2
20260503171516 55 0.0 0.0 0.00 0.00 0.00 41 1012.2
20260503170517 54 0.0 0.0 0.00 0.00 0.00 42 1012.4
20260503150517 52 0.0 0.0 0.00 0.00 0.00 43 1013.7
20260503130517 45 0.0 0.0 0.00 0.00 0.00 54 1015.1
20260503110518 38 0.0 0.0 0.00 0.00 0.00 72 1016.0
20260503081516 38 0.0 0.0 0.00 0.00 0.00 70 1015.5
20260503080516 38 0.0 0.0 0.00 0.00 0.00 70 1015.6
20260503072518 39 0.0 0.0 0.00 0.00 0.00 69 1015.5
20260503071516 39 0.0 0.0 0.00 0.00 0.00 68 1015.5
20260503070515 39 0.0 0.0 0.00 0.00 0.00 67 1015.4
20260503054555 41 0.0 0.0 0.00 0.00 0.00 63 1015.6
20260503053515 42 0.0 0.0 0.00 0.00 0.00 64 1015.7
20260503052516 42 0.0 0.0 0.00 0.00 0.00 63 1015.8
20260503051516 42 0.0 0.0 0.00 0.00 0.00 63 1015.9
20260503050516 42 0.0 0.0 0.00 0.00 0.00 63 1015.9